Regional Weather Roundup
Issued by NWS

Home | Current Version | Previous Version | Text Only | Print | Product List | Glossary Off
Versions: 1 2 3 4 5 6 7 8 9 10 11 12 13 14 15 16 17 18 19 20 21 22 23 24 25 26 27 28 29 30 31 32 33 34 35 36 37 38 39 40 41 42 43 44 45 46 47 48 49 50

347
ASUS45 KBOI 041410
RWRID

IDAHO REGIONAL WEATHER ROUNDUP
NATIONAL WEATHER SERVICE BOISE ID
800 AM MDT WED MAY 04 2016

NOTE: "FAIR" INDICATES FEW OR NO CLOUDS BELOW 12000 FEET
WITH NO SIGNIFICANT WEATHER AND/OR OBSTRUCTIONS TO VISIBILITY

IDZ012-014-041500-
SOUTHWEST IDAHO


CITY           SKY/WX    TMP DP  RH WIND       PRES   REMARKS
BOISE          MOSUNNY   58  37  45 NW5       29.99R
CALDWELL       NOT AVBL
MOUNTAIN HOME  PTSUNNY   56  34  44 SE16      30.00S
$$

IDZ016-017-041500-
SOUTHCENTRAL IDAHO


CITY           SKY/WX    TMP DP  RH WIND       PRES   REMARKS
BURLEY         MOSUNNY   45  38  76 CALM      30.10R
JEROME         MOSUNNY   49  36  61 NE16      30.09R
TWIN FALLS     MOSUNNY   59  34  39 CALM      30.09R
$$

IDZ019>023-041500-
SOUTHEAST IDAHO


CITY           SKY/WX    TMP DP  RH WIND       PRES   REMARKS
IDAHO FALLS    MOSUNNY   47  36  65 N6        30.17S
POCATELLO      CLOUDY    48  41  76 N5        30.16R
REXBURG        CLOUDY    43  32  65 NE3       30.19R
$$

IDZ006-010-011-018-031-032-041500-
CENTRAL IDAHO MOUNTAINS


CITY           SKY/WX    TMP DP  RH WIND       PRES   REMARKS
MCCALL         MOSUNNY   43  36  76 CALM      30.10R
HAILEY         PTSUNNY   45  32  61 NW14      30.20S
STANLEY          N/A     33  27  78 CALM      30.24R
SALMON         SUNNY     43  34  70 CALM      30.14S
CHALLIS        MOSUNNY   45  28  51 NW3       30.18R
$$

IDZ002-004-006-007-026-041500-
NORTHERN IDAHO


CITY           SKY/WX    TMP DP  RH WIND       PRES   REMARKS
LEWISTON       PTSUNNY   57  47  69 NW5       30.01S
LOWELL           N/A     50  45  83 CALM      30.08R
COEUR D`ALENE  PTSUNNY   57  45  62 SE8       29.98S
MULLAN PASS    CLOUDY    52  29  41 SW6       30.12S
$$




USA.gov is the U.S. government's official web portal to all federal, state and local government web resources and services.